FWI11B TFFF-LFPO

Flight info

Callsign FWI11B
Flight time 7h 24m
Altitude 38000
Route SESPO2R SESPO DCT ELJEZ/M085F380 DCT 22N050W 25N045W 29N040W 33N035W 37N030W 43N020W DCT PASAS DCT SIVIR UN460 RIVAK/N0481F380 DCT AKEMO DCT TERPO DCT ANG DCT DEKJA UN482 NIMER DCT CAD
Aircraft A35K/H-SDE2E3GHIJ3J4J5LM1ORWXY/LB1D1

Departure

Time 2026-04-25 04:18
Airport Martinique Aimé Césaire International Airport (TFFF)

Arrival

Time 2026-04-25 11:43
Airport Paris-Orly Airport (LFPO)
Time Latitude Longitude Altitude Speed Heading
2026-04-25 03:58 14.59451 -61.00037 32 ft 0 kts 23°
2026-04-25 04:07 14.59437 -61.00044 26 ft 3 kts 23°
2026-04-25 04:07 14.59419 -61.00052 33 ft 3 kts 31°
2026-04-25 04:07 14.59403 -61.00064 31 ft 3 kts 49°
2026-04-25 04:08 14.59392 -61.00080 31 ft 3 kts 66°
2026-04-25 04:08 14.59387 -61.00099 30 ft 3 kts 83°
2026-04-25 04:08 14.59386 -61.00118 28 ft 3 kts 100°
2026-04-25 04:08 14.59387 -61.00121 31 ft 0 kts 100°
2026-04-25 04:09 14.59387 -61.00120 31 ft 0 kts 100°
2026-04-25 04:12 14.59386 -61.00117 27 ft 1 kts 100°
2026-04-25 04:12 14.59382 -61.00098 30 ft 4 kts 103°
2026-04-25 04:12 14.59367 -61.00062 30 ft 7 kts 121°
2026-04-25 04:13 14.59323 -61.00041 27 ft 8 kts 166°
2026-04-25 04:13 14.59255 -61.00025 29 ft 12 kts 169°
2026-04-25 04:13 14.59180 -61.00030 27 ft 9 kts 219°
2026-04-25 04:13 14.59147 -61.00093 24 ft 11 kts 252°
2026-04-25 04:14 14.59129 -61.00184 22 ft 16 kts 260°
2026-04-25 04:14 14.59107 -61.00314 22 ft 21 kts 260°
2026-04-25 04:14 14.59079 -61.00475 21 ft 25 kts 260°
2026-04-25 04:14 14.59046 -61.00668 25 ft 29 kts 260°
2026-04-25 04:15 14.59010 -61.00879 25 ft 31 kts 260°
2026-04-25 04:15 14.58971 -61.01104 26 ft 32 kts 260°
2026-04-25 04:15 14.58933 -61.01329 26 ft 32 kts 260°
2026-04-25 04:15 14.58894 -61.01556 25 ft 32 kts 260°
2026-04-25 04:16 14.58870 -61.01691 27 ft 17 kts 260°
2026-04-25 04:16 14.58900 -61.01780 27 ft 6 kts 287°
2026-04-25 04:16 14.58887 -61.01807 29 ft 5 kts 214°
2026-04-25 04:16 14.58857 -61.01798 29 ft 4 kts 129°
2026-04-25 04:17 14.58858 -61.01770 29 ft 4 kts 84°
2026-04-25 04:17 14.58861 -61.01748 26 ft 0 kts 80°
2026-04-25 04:17 14.58867 -61.01713 27 ft 17 kts 80°
2026-04-25 04:18 14.58929 -61.01349 27 ft 92 kts 79°
2026-04-25 04:18 14.59088 -61.00419 28 ft 167 kts 80°
2026-04-25 04:18 14.59315 -60.99149 660 ft 187 kts 79°
2026-04-25 04:18 14.59586 -60.97791 1549 ft 199 kts 78°
2026-04-25 04:19 14.59870 -60.96407 2117 ft 200 kts 78°
2026-04-25 04:19 14.60160 -60.94930 2371 ft 219 kts 79°
2026-04-25 04:19 14.60434 -60.93353 2649 ft 233 kts 80°
2026-04-25 04:19 14.60812 -60.91662 2893 ft 250 kts 72°
2026-04-25 04:20 14.61658 -60.90068 3430 ft 256 kts 50°
2026-04-25 04:20 14.62986 -60.88844 4060 ft 259 kts 38°
2026-04-25 04:20 14.64465 -60.87744 4575 ft 264 kts 38°
2026-04-25 04:20 14.65957 -60.86616 5109 ft 268 kts 38°
2026-04-25 04:21 14.67466 -60.85460 5626 ft 272 kts 38°
2026-04-25 04:21 14.68997 -60.84284 6152 ft 276 kts 38°
2026-04-25 04:21 14.70545 -60.83094 6663 ft 280 kts 38°
2026-04-25 04:21 14.72093 -60.81902 7179 ft 283 kts 38°
2026-04-25 04:22 14.73676 -60.80683 7711 ft 286 kts 38°
2026-04-25 04:22 14.75280 -60.79445 8228 ft 289 kts 38°
2026-04-25 04:22 14.76898 -60.78199 8766 ft 292 kts 38°
2026-04-25 04:22 14.78533 -60.76938 9298 ft 294 kts 37°
2026-04-25 04:23 14.80165 -60.75680 9839 ft 298 kts 37°
2026-04-25 04:23 14.81838 -60.74389 10245 ft 304 kts 37°
2026-04-25 04:23 14.83568 -60.73053 10503 ft 316 kts 37°
2026-04-25 04:23 14.85359 -60.71672 10787 ft 327 kts 37°
2026-04-25 04:24 14.87210 -60.70243 11048 ft 338 kts 37°
2026-04-25 04:24 14.89128 -60.68762 11331 ft 348 kts 37°
2026-04-25 04:24 14.91090 -60.67247 11618 ft 357 kts 37°
2026-04-25 04:24 14.93108 -60.65688 11891 ft 367 kts 37°
2026-04-25 04:25 14.95170 -60.64096 12195 ft 374 kts 37°
2026-04-25 04:25 14.97271 -60.62472 12561 ft 379 kts 37°
2026-04-25 04:25 14.99393 -60.60831 12948 ft 383 kts 37°
2026-04-25 04:25 15.01546 -60.59167 13376 ft 386 kts 37°
2026-04-25 04:26 15.03675 -60.57520 13782 ft 389 kts 37°
2026-04-25 04:26 15.05845 -60.55841 14142 ft 392 kts 37°
2026-04-25 04:26 15.08040 -60.54143 14509 ft 395 kts 37°
2026-04-25 04:26 15.10247 -60.52435 14878 ft 397 kts 37°
2026-04-25 04:27 15.12469 -60.50714 15266 ft 399 kts 36°
2026-04-25 04:27 15.14699 -60.48987 15652 ft 402 kts 36°
2026-04-25 04:27 15.16939 -60.47252 16015 ft 404 kts 36°
2026-04-25 04:27 15.19195 -60.45504 16417 ft 406 kts 36°
2026-04-25 04:28 15.21437 -60.43766 16786 ft 409 kts 36°
2026-04-25 04:28 15.23744 -60.41977 17184 ft 411 kts 36°
2026-04-25 04:28 15.26006 -60.40223 17552 ft 413 kts 36°
2026-04-25 04:28 15.28319 -60.38429 17913 ft 415 kts 36°
2026-04-25 04:29 15.30635 -60.36632 18284 ft 418 kts 36°
2026-04-25 04:29 15.32974 -60.34816 18585 ft 420 kts 36°
2026-04-25 04:29 15.35314 -60.33000 18879 ft 423 kts 36°
2026-04-25 04:29 15.37682 -60.31160 19165 ft 426 kts 36°
2026-04-25 04:30 15.40050 -60.29320 19445 ft 429 kts 36°
2026-04-25 04:30 15.42439 -60.27464 19744 ft 431 kts 36°
2026-04-25 04:30 15.44818 -60.25615 20044 ft 433 kts 36°
2026-04-25 04:30 15.47264 -60.23713 20326 ft 436 kts 36°
2026-04-25 04:31 15.49668 -60.21844 20609 ft 438 kts 36°
2026-04-25 04:31 15.52102 -60.19949 20907 ft 440 kts 36°
2026-04-25 04:31 15.54555 -60.18041 21185 ft 442 kts 36°
2026-04-25 04:31 15.57031 -60.16113 21467 ft 445 kts 36°
2026-04-25 04:32 15.59501 -60.14190 21738 ft 447 kts 36°
2026-04-25 04:32 15.62003 -60.12240 22011 ft 449 kts 36°
2026-04-25 04:32 15.64444 -60.10203 22271 ft 453 kts 41°
2026-04-25 04:32 15.66627 -60.07849 22533 ft 455 kts 49°
2026-04-25 04:33 15.68640 -60.05351 22792 ft 458 kts 50°
2026-04-25 04:33 15.70632 -60.02771 23045 ft 460 kts 51°
2026-04-25 04:33 15.72623 -60.00154 23297 ft 462 kts 51°
2026-04-25 04:33 15.74621 -59.97524 23541 ft 465 kts 51°
2026-04-25 04:34 15.76629 -59.94894 23749 ft 467 kts 51°
2026-04-25 04:34 15.78664 -59.92244 23958 ft 469 kts 51°
2026-04-25 04:34 15.80700 -59.89602 24169 ft 471 kts 51°
2026-04-25 04:34 15.82727 -59.86979 24366 ft 473 kts 50°
2026-04-25 04:35 15.84789 -59.84311 24564 ft 475 kts 50°
2026-04-25 04:35 15.86860 -59.81632 24772 ft 477 kts 50°
2026-04-25 04:35 15.88938 -59.78941 24979 ft 479 kts 50°
2026-04-25 04:35 15.91032 -59.76229 25179 ft 481 kts 50°
2026-04-25 04:36 15.93121 -59.73521 25378 ft 483 kts 50°
2026-04-25 04:36 15.95221 -59.70798 25578 ft 484 kts 50°
2026-04-25 04:36 15.97331 -59.68061 25799 ft 486 kts 50°
2026-04-25 04:36 15.99457 -59.65302 25977 ft 488 kts 50°
2026-04-25 04:37 16.01556 -59.62576 26182 ft 490 kts 50°
2026-04-25 04:37 16.03684 -59.59812 26379 ft 492 kts 50°
2026-04-25 04:37 16.05835 -59.57017 26575 ft 494 kts 50°
2026-04-25 04:37 16.07987 -59.54220 26798 ft 496 kts 50°
2026-04-25 04:38 16.10138 -59.51422 26984 ft 498 kts 50°
2026-04-25 04:38 16.12301 -59.48609 27194 ft 500 kts 50°
2026-04-25 04:38 16.14479 -59.45775 27397 ft 502 kts 50°
2026-04-25 04:38 16.16656 -59.42940 27598 ft 504 kts 50°
2026-04-25 04:39 16.18850 -59.40084 27813 ft 506 kts 50°
2026-04-25 04:39 16.21021 -59.37255 28001 ft 508 kts 50°
2026-04-25 04:39 16.23224 -59.34384 28205 ft 510 kts 50°
2026-04-25 04:39 16.25446 -59.31487 28391 ft 512 kts 50°
2026-04-25 04:40 16.27670 -59.28586 28622 ft 513 kts 50°
2026-04-25 04:40 16.29897 -59.25679 28809 ft 515 kts 50°
2026-04-25 04:40 16.32133 -59.22760 29002 ft 517 kts 50°
2026-04-25 04:40 16.34377 -59.19830 29208 ft 519 kts 50°
2026-04-25 04:41 16.36640 -59.16873 29416 ft 521 kts 50°
2026-04-25 04:41 16.38893 -59.13927 29611 ft 523 kts 50°
2026-04-25 04:41 16.41143 -59.10986 29805 ft 525 kts 50°
2026-04-25 04:41 16.43419 -59.08008 30016 ft 527 kts 50°
2026-04-25 04:42 16.45703 -59.05018 30182 ft 529 kts 50°
2026-04-25 04:42 16.48001 -59.02009 30350 ft 531 kts 50°
2026-04-25 04:42 16.50301 -58.98996 30518 ft 532 kts 50°
2026-04-25 04:42 16.52600 -58.95983 30690 ft 534 kts 50°
2026-04-25 04:43 16.54920 -58.92941 30876 ft 535 kts 51°
2026-04-25 04:43 16.57243 -58.89895 31053 ft 537 kts 51°
2026-04-25 04:43 16.59541 -58.86879 31215 ft 539 kts 51°
2026-04-25 04:43 16.61904 -58.83777 31391 ft 540 kts 51°
2026-04-25 04:44 16.64240 -58.80708 31552 ft 542 kts 51°
2026-04-25 04:44 16.66560 -58.77661 31714 ft 544 kts 51°
2026-04-25 04:44 16.68909 -58.74573 31868 ft 545 kts 51°
2026-04-25 04:44 16.71272 -58.71465 32021 ft 547 kts 51°
2026-04-25 04:45 16.73631 -58.68362 32211 ft 547 kts 51°
2026-04-25 04:45 16.75996 -58.65249 32429 ft 547 kts 51°
2026-04-25 04:45 16.78371 -58.62122 32654 ft 547 kts 51°
2026-04-25 04:45 16.80731 -58.59013 32861 ft 548 kts 51°
2026-04-25 04:46 16.83071 -58.55929 33094 ft 548 kts 51°
2026-04-25 04:46 16.85460 -58.52779 33314 ft 548 kts 52°
2026-04-25 04:46 16.87798 -58.49696 33536 ft 548 kts 52°
2026-04-25 04:46 16.90157 -58.46582 33771 ft 548 kts 52°
2026-04-25 04:47 16.92522 -58.43459 34011 ft 548 kts 52°
2026-04-25 04:47 16.94883 -58.40341 34217 ft 548 kts 52°
2026-04-25 04:47 16.97250 -58.37214 34435 ft 547 kts 52°
2026-04-25 04:47 16.99600 -58.34107 34668 ft 546 kts 52°
2026-04-25 04:48 17.01956 -58.30991 34894 ft 546 kts 51°
2026-04-25 04:48 17.04279 -58.27917 35118 ft 545 kts 51°
2026-04-25 04:48 17.06630 -58.24805 35337 ft 545 kts 51°
2026-04-25 04:48 17.08971 -58.21704 35566 ft 544 kts 51°
2026-04-25 04:49 17.11314 -58.18599 35799 ft 543 kts 51°
2026-04-25 04:49 17.13645 -58.15509 36032 ft 543 kts 51°
2026-04-25 04:49 17.15990 -58.12399 36224 ft 542 kts 51°
2026-04-25 04:49 17.18316 -58.09313 36439 ft 542 kts 51°
2026-04-25 04:50 17.20642 -58.06224 36661 ft 541 kts 51°
2026-04-25 04:50 17.22977 -58.03123 36864 ft 541 kts 51°
2026-04-25 04:50 17.25300 -58.00037 37085 ft 540 kts 51°
2026-04-25 04:50 17.27587 -57.96997 37278 ft 540 kts 51°
2026-04-25 04:51 17.29904 -57.93915 37481 ft 539 kts 50°
2026-04-25 04:51 17.32228 -57.90823 37670 ft 539 kts 50°
2026-04-25 04:51 17.34542 -57.87743 37885 ft 538 kts 50°
2026-04-25 04:51 17.36853 -57.84665 38006 ft 539 kts 50°
2026-04-25 04:52 17.39178 -57.81568 38013 ft 543 kts 50°
2026-04-25 04:52 17.43852 -57.75339 38015 ft 545 kts 50°
2026-04-25 04:53 17.48493 -57.69145 38020 ft 544 kts 50°
2026-04-25 04:53 17.53167 -57.62901 38016 ft 544 kts 50°
2026-04-25 04:54 17.57829 -57.56668 38016 ft 544 kts 50°
2026-04-25 04:54 17.62502 -57.50415 38016 ft 545 kts 50°
2026-04-25 04:55 17.67141 -57.44202 38019 ft 545 kts 50°
2026-04-25 04:55 17.71816 -57.37933 38018 ft 545 kts 50°
2026-04-25 04:56 17.76490 -57.31660 38018 ft 546 kts 50°
2026-04-25 04:56 17.81162 -57.25384 38018 ft 546 kts 50°
2026-04-25 04:57 17.85844 -57.19089 38017 ft 547 kts 50°
2026-04-25 04:57 17.90485 -57.12843 38016 ft 547 kts 50°
2026-04-25 04:58 17.95162 -57.06543 38018 ft 547 kts 50°
2026-04-25 04:58 17.99803 -57.00210 38003 ft 548 kts 54°
2026-04-25 04:59 18.03986 -56.93481 38028 ft 549 kts 56°
2026-04-25 04:59 18.08074 -56.86698 38014 ft 550 kts 56°
2026-04-25 05:00 18.12130 -56.79949 38035 ft 550 kts 56°
2026-04-25 05:00 18.16227 -56.73145 38009 ft 550 kts 56°
2026-04-25 05:01 18.20323 -56.66344 38034 ft 551 kts 56°
2026-04-25 05:01 18.24416 -56.59543 38020 ft 551 kts 56°
2026-04-25 05:02 18.28495 -56.52756 38020 ft 551 kts 56°
2026-04-25 05:02 18.32587 -56.45942 38022 ft 552 kts 56°
2026-04-25 05:03 18.36682 -56.39113 38027 ft 552 kts 56°
2026-04-25 05:03 18.40774 -56.32284 38022 ft 553 kts 56°
2026-04-25 05:04 18.44844 -56.25492 38021 ft 548 kts 57°
2026-04-25 05:04 18.48889 -56.18719 38018 ft 545 kts 57°
2026-04-25 05:05 18.52919 -56.11967 38018 ft 545 kts 57°
2026-04-25 05:05 18.56960 -56.05192 38019 ft 545 kts 57°
2026-04-25 05:06 18.60990 -55.98429 38024 ft 546 kts 57°
2026-04-25 05:06 18.65008 -55.91679 38012 ft 546 kts 57°
2026-04-25 05:07 18.69037 -55.84904 38032 ft 546 kts 57°
2026-04-25 05:07 18.73069 -55.78116 38012 ft 546 kts 57°
2026-04-25 05:08 18.77100 -55.71323 38034 ft 546 kts 57°
2026-04-25 05:08 18.81122 -55.64536 38017 ft 546 kts 57°
2026-04-25 05:09 18.85120 -55.57783 38036 ft 546 kts 57°
2026-04-25 05:09 18.89143 -55.50981 38016 ft 547 kts 57°
2026-04-25 05:10 18.93149 -55.44200 38036 ft 547 kts 57°
2026-04-25 05:10 18.97165 -55.37394 38015 ft 547 kts 57°
2026-04-25 05:11 19.01196 -55.30556 38019 ft 547 kts 57°
2026-04-25 05:11 19.05210 -55.23738 38031 ft 547 kts 57°
2026-04-25 05:12 19.11241 -55.13481 38026 ft 547 kts 57°
2026-04-25 05:12 19.15227 -55.06693 38028 ft 547 kts 57°
2026-04-25 05:13 19.19244 -54.99845 38023 ft 548 kts 57°
2026-04-25 05:13 19.23253 -54.93002 38029 ft 548 kts 57°
2026-04-25 05:14 19.27272 -54.86134 38031 ft 548 kts 57°
2026-04-25 05:15 19.33272 -54.75867 38031 ft 549 kts 57°
2026-04-25 05:15 19.37281 -54.68996 38029 ft 549 kts 57°
2026-04-25 05:16 19.41293 -54.62114 38029 ft 549 kts 57°
2026-04-25 05:16 19.45307 -54.55221 38027 ft 549 kts 57°
2026-04-25 05:17 19.49282 -54.48385 38029 ft 549 kts 57°
2026-04-25 05:17 19.53291 -54.41485 38033 ft 550 kts 57°
2026-04-25 05:18 19.57300 -54.34575 38031 ft 550 kts 57°
2026-04-25 05:18 19.61304 -54.27667 38033 ft 550 kts 57°
2026-04-25 05:19 19.65301 -54.20762 38034 ft 550 kts 57°
2026-04-25 05:19 19.69280 -54.13881 38034 ft 550 kts 57°
2026-04-25 05:20 19.73280 -54.06955 38032 ft 551 kts 57°
2026-04-25 05:20 19.77284 -54.00014 38031 ft 551 kts 57°
2026-04-25 05:21 19.81280 -53.93080 38032 ft 551 kts 57°
2026-04-25 05:21 19.85253 -53.86177 38031 ft 551 kts 57°
2026-04-25 05:22 19.89244 -53.79234 38033 ft 551 kts 57°
2026-04-25 05:22 19.93242 -53.72270 38037 ft 552 kts 57°
2026-04-25 05:23 19.97238 -53.65304 38037 ft 552 kts 57°
2026-04-25 05:23 20.01226 -53.58342 38039 ft 552 kts 57°
2026-04-25 05:24 20.05194 -53.51407 38043 ft 552 kts 57°
2026-04-25 05:24 20.09175 -53.44440 38037 ft 552 kts 57°
2026-04-25 05:25 20.13165 -53.37449 38039 ft 552 kts 57°
2026-04-25 05:25 20.17149 -53.30462 38039 ft 552 kts 57°
2026-04-25 05:26 20.21110 -53.23506 38035 ft 552 kts 57°
2026-04-25 05:26 20.25118 -53.16459 38036 ft 553 kts 57°
2026-04-25 05:27 20.29056 -53.09526 38038 ft 553 kts 57°
2026-04-25 05:27 20.33035 -53.02513 38037 ft 553 kts 57°
2026-04-25 05:28 20.37011 -52.95495 38036 ft 553 kts 57°
2026-04-25 05:28 20.40987 -52.88470 38039 ft 553 kts 57°
2026-04-25 05:29 20.44930 -52.81495 38040 ft 553 kts 57°
2026-04-25 05:29 20.48889 -52.74483 38035 ft 553 kts 57°
2026-04-25 05:30 20.52856 -52.67449 38031 ft 553 kts 57°
2026-04-25 05:30 20.56822 -52.60406 38042 ft 553 kts 57°
2026-04-25 05:31 20.60786 -52.53360 38042 ft 554 kts 57°
2026-04-25 05:31 20.64721 -52.46356 38039 ft 554 kts 57°
2026-04-25 05:32 20.68675 -52.39308 38040 ft 554 kts 57°
2026-04-25 05:32 20.72635 -52.32243 38041 ft 554 kts 57°
2026-04-25 05:33 20.76591 -52.25175 38040 ft 554 kts 57°
2026-04-25 05:33 20.80521 -52.18145 38040 ft 554 kts 57°
2026-04-25 05:34 20.84467 -52.11077 38047 ft 555 kts 57°
2026-04-25 05:34 20.88425 -52.03978 38038 ft 555 kts 57°
2026-04-25 05:35 20.92367 -51.96900 38045 ft 555 kts 57°
2026-04-25 05:35 20.96324 -51.89787 38028 ft 555 kts 57°
2026-04-25 05:36 21.00234 -51.82747 38057 ft 555 kts 57°
2026-04-25 05:36 21.04174 -51.75646 38036 ft 556 kts 57°
2026-04-25 05:37 21.08123 -51.68519 38042 ft 556 kts 57°
2026-04-25 05:37 21.12068 -51.61390 38041 ft 556 kts 57°
2026-04-25 05:38 21.16001 -51.54272 38040 ft 556 kts 57°
2026-04-25 05:38 21.19914 -51.47184 38040 ft 556 kts 57°
2026-04-25 05:39 21.23847 -51.40049 38041 ft 556 kts 57°
2026-04-25 05:39 21.27783 -51.32899 38041 ft 557 kts 57°
2026-04-25 05:40 21.31718 -51.25742 38041 ft 557 kts 57°
2026-04-25 05:40 21.35628 -51.18621 38040 ft 558 kts 57°
2026-04-25 05:41 21.39563 -51.11444 38043 ft 558 kts 57°
2026-04-25 05:41 21.43495 -51.04266 38041 ft 558 kts 57°
2026-04-25 05:42 21.47425 -50.97080 38042 ft 558 kts 57°
2026-04-25 05:42 21.51353 -50.89888 38037 ft 559 kts 57°
2026-04-25 05:43 21.55276 -50.82696 38041 ft 559 kts 57°
2026-04-25 05:43 21.59184 -50.75522 38033 ft 560 kts 57°
2026-04-25 05:44 21.63120 -50.68289 38041 ft 560 kts 56°
2026-04-25 05:44 21.67041 -50.61072 38043 ft 560 kts 56°
2026-04-25 05:45 21.70965 -50.53839 38046 ft 560 kts 56°
2026-04-25 05:45 21.74867 -50.46639 38044 ft 561 kts 56°
2026-04-25 05:46 21.78795 -50.39379 38036 ft 561 kts 56°
2026-04-25 05:46 21.82719 -50.32118 38050 ft 561 kts 56°
2026-04-25 05:47 21.86637 -50.24857 38041 ft 562 kts 56°
2026-04-25 05:47 21.90558 -50.17583 38049 ft 562 kts 56°
2026-04-25 05:48 21.94448 -50.10353 38043 ft 562 kts 56°
2026-04-25 05:48 21.98365 -50.03066 38048 ft 562 kts 56°
2026-04-25 05:49 22.02346 -49.95840 38047 ft 560 kts 53°
2026-04-25 05:49 22.06756 -49.88938 38046 ft 558 kts 50°
2026-04-25 05:50 22.11201 -49.82121 38051 ft 559 kts 51°
2026-04-25 05:50 22.15598 -49.75203 38052 ft 560 kts 51°
2026-04-25 05:51 22.19955 -49.68244 38048 ft 560 kts 52°
2026-04-25 05:51 22.24314 -49.61260 38050 ft 560 kts 52°
2026-04-25 05:52 22.28633 -49.54340 38047 ft 560 kts 52°
2026-04-25 05:52 22.32995 -49.47346 38049 ft 561 kts 52°
2026-04-25 05:53 22.37342 -49.40369 38049 ft 561 kts 52°
2026-04-25 05:53 22.41699 -49.33365 38045 ft 561 kts 52°
2026-04-25 05:54 22.46056 -49.26352 38051 ft 562 kts 52°
2026-04-25 05:54 22.52549 -49.15884 38050 ft 562 kts 52°
2026-04-25 05:55 22.56910 -49.08842 38051 ft 563 kts 52°
2026-04-25 05:55 22.61259 -49.01810 38054 ft 563 kts 52°
2026-04-25 05:56 22.65579 -48.94814 38049 ft 563 kts 52°
2026-04-25 05:56 22.69933 -48.87755 38051 ft 563 kts 51°
2026-04-25 05:57 22.74281 -48.80696 38052 ft 564 kts 52°
2026-04-25 05:57 22.78630 -48.73625 38054 ft 564 kts 51°
2026-04-25 05:58 22.82947 -48.66596 38050 ft 564 kts 51°
2026-04-25 05:58 22.87297 -48.59504 38052 ft 564 kts 51°
2026-04-25 05:59 22.91636 -48.52423 38055 ft 565 kts 51°
2026-04-25 05:59 22.95985 -48.45313 38058 ft 565 kts 51°
2026-04-25 06:00 23.00295 -48.38259 38055 ft 565 kts 51°
2026-04-25 06:00 23.04635 -48.31146 38056 ft 565 kts 51°
2026-04-25 06:01 23.08972 -48.24026 38053 ft 565 kts 51°
2026-04-25 06:01 23.13304 -48.16906 38059 ft 565 kts 51°
2026-04-25 06:02 23.17640 -48.09770 38055 ft 565 kts 51°
2026-04-25 06:02 23.21934 -48.02692 38061 ft 565 kts 51°
2026-04-25 06:03 23.26261 -47.95551 38056 ft 566 kts 51°
2026-04-25 06:03 23.30587 -47.88401 38059 ft 566 kts 51°
2026-04-25 06:04 23.34917 -47.81235 38062 ft 566 kts 51°
2026-04-25 06:04 23.39210 -47.74119 38061 ft 566 kts 51°
2026-04-25 06:05 23.43525 -47.66956 38059 ft 567 kts 51°
2026-04-25 06:05 23.47848 -47.59772 38047 ft 567 kts 51°
2026-04-25 06:06 23.52164 -47.52588 38071 ft 567 kts 51°
2026-04-25 06:06 23.56490 -47.45377 38056 ft 568 kts 51°
2026-04-25 06:07 23.60781 -47.38215 38063 ft 568 kts 51°
2026-04-25 06:07 23.65100 -47.30995 38063 ft 568 kts 51°
2026-04-25 06:08 23.69413 -47.23775 38061 ft 569 kts 51°
2026-04-25 06:08 23.73738 -47.16525 38069 ft 569 kts 51°
2026-04-25 06:09 23.78058 -47.09273 38066 ft 570 kts 51°
2026-04-25 06:09 23.82342 -47.02070 38063 ft 570 kts 51°
2026-04-25 06:10 23.86664 -46.94795 38068 ft 571 kts 51°
2026-04-25 06:10 23.90986 -46.87507 38067 ft 571 kts 51°
2026-04-25 06:11 23.95297 -46.80227 38062 ft 572 kts 51°
2026-04-25 06:11 23.99589 -46.72968 38063 ft 572 kts 51°
2026-04-25 06:12 24.03903 -46.65663 38068 ft 572 kts 51°
2026-04-25 06:12 24.08218 -46.58344 38069 ft 573 kts 51°
2026-04-25 06:13 24.12537 -46.51009 38069 ft 573 kts 51°
2026-04-25 06:14 24.19011 -46.39992 38069 ft 574 kts 51°
2026-04-25 06:14 24.23293 -46.32692 38073 ft 574 kts 51°
2026-04-25 06:15 24.27608 -46.25324 38068 ft 574 kts 51°
2026-04-25 06:15 24.31920 -46.17949 38069 ft 574 kts 51°
2026-04-25 06:16 24.36201 -46.10619 38072 ft 575 kts 51°
2026-04-25 06:16 24.40503 -46.03240 38073 ft 575 kts 51°
2026-04-25 06:17 24.44814 -45.95835 38063 ft 576 kts 51°
2026-04-25 06:17 24.49120 -45.88427 38075 ft 576 kts 51°
2026-04-25 06:18 24.53427 -45.81006 38064 ft 576 kts 51°
2026-04-25 06:18 24.57698 -45.73636 38073 ft 576 kts 51°
2026-04-25 06:19 24.61998 -45.66205 38073 ft 577 kts 51°
2026-04-25 06:19 24.66296 -45.58765 38074 ft 577 kts 51°
2026-04-25 06:20 24.70594 -45.51313 38072 ft 577 kts 51°
2026-04-25 06:20 24.74889 -45.43856 38074 ft 577 kts 51°
2026-04-25 06:21 24.79152 -45.36442 38071 ft 577 kts 51°
2026-04-25 06:21 24.83441 -45.28971 38072 ft 577 kts 51°
2026-04-25 06:22 24.87734 -45.21484 38075 ft 578 kts 51°
2026-04-25 06:22 24.92010 -45.14012 38070 ft 578 kts 51°
2026-04-25 06:23 24.96291 -45.06522 38077 ft 578 kts 51°
2026-04-25 06:23 25.00745 -44.99276 38083 ft 566 kts 40°
2026-04-25 06:24 25.05987 -44.92863 38078 ft 562 kts 38°
2026-04-25 06:24 25.11326 -44.86563 38075 ft 561 kts 38°
2026-04-25 06:25 25.16624 -44.80318 38074 ft 561 kts 38°
2026-04-25 06:25 25.21939 -44.74017 38073 ft 561 kts 38°
2026-04-25 06:26 25.27246 -44.67704 38076 ft 560 kts 38°
2026-04-25 06:26 25.32538 -44.61399 38073 ft 560 kts 38°
2026-04-25 06:27 25.37839 -44.55076 38075 ft 559 kts 38°
2026-04-25 06:27 25.43084 -44.48811 38073 ft 559 kts 38°
2026-04-25 06:28 25.48370 -44.42490 38075 ft 559 kts 38°
2026-04-25 06:28 25.53643 -44.36175 38079 ft 559 kts 37°
2026-04-25 06:29 25.58927 -44.29838 38078 ft 559 kts 37°
2026-04-25 06:29 25.64160 -44.23553 38079 ft 559 kts 37°
2026-04-25 06:30 25.69434 -44.17210 38081 ft 559 kts 37°
2026-04-25 06:30 25.74696 -44.10872 38066 ft 559 kts 37°
2026-04-25 06:31 25.79064 -44.05605 38070 ft 559 kts 37°
2026-04-25 06:31 25.84328 -43.99248 38080 ft 558 kts 37°
2026-04-25 06:32 25.90428 -43.91871 38075 ft 558 kts 37°
2026-04-25 06:32 25.94821 -43.86550 38078 ft 558 kts 37°
2026-04-25 06:33 26.00028 -43.80237 38077 ft 557 kts 37°
2026-04-25 06:33 26.05254 -43.73890 38080 ft 557 kts 37°
2026-04-25 06:34 26.10481 -43.67535 38081 ft 556 kts 38°
2026-04-25 06:34 26.15699 -43.61180 38082 ft 556 kts 38°
2026-04-25 06:35 26.20913 -43.54820 38079 ft 556 kts 38°
2026-04-25 06:35 26.26093 -43.48493 38081 ft 555 kts 38°
2026-04-25 06:36 26.31282 -43.42146 38083 ft 555 kts 38°
2026-04-25 06:36 26.36489 -43.35769 38083 ft 555 kts 38°
2026-04-25 06:37 26.41669 -43.29415 38080 ft 554 kts 38°
2026-04-25 06:37 26.46817 -43.23092 38067 ft 554 kts 38°
2026-04-25 06:38 26.51992 -43.16727 38091 ft 554 kts 38°
2026-04-25 06:38 26.57166 -43.10354 38079 ft 553 kts 38°
2026-04-25 06:39 26.62337 -43.03975 38079 ft 553 kts 38°
2026-04-25 06:39 26.67501 -42.97594 38080 ft 553 kts 38°
2026-04-25 06:40 26.72614 -42.91268 38083 ft 553 kts 38°
2026-04-25 06:40 26.77769 -42.84880 38087 ft 553 kts 38°
2026-04-25 06:41 26.82914 -42.78495 38086 ft 552 kts 38°
2026-04-25 06:41 26.88057 -42.72104 38082 ft 552 kts 38°
2026-04-25 06:42 26.93157 -42.65757 38086 ft 552 kts 38°
2026-04-25 06:42 26.98298 -42.59349 38082 ft 552 kts 38°
2026-04-25 06:43 27.03415 -42.52962 38081 ft 551 kts 38°
2026-04-25 06:43 27.08544 -42.46550 38085 ft 551 kts 38°
2026-04-25 06:44 27.13630 -42.40183 38085 ft 551 kts 39°
2026-04-25 06:44 27.18742 -42.33773 38088 ft 551 kts 39°
2026-04-25 06:45 27.23857 -42.27351 38086 ft 551 kts 39°
2026-04-25 06:45 27.28949 -42.20948 38086 ft 550 kts 39°
2026-04-25 06:46 27.34041 -42.14534 38088 ft 550 kts 39°
2026-04-25 06:46 27.39101 -42.08153 38083 ft 550 kts 39°
2026-04-25 06:47 27.44183 -42.01733 38083 ft 549 kts 39°
2026-04-25 06:47 27.49258 -41.95313 38073 ft 549 kts 39°
2026-04-25 06:48 27.54332 -41.88884 38084 ft 548 kts 39°
2026-04-25 06:48 27.59401 -41.82454 38090 ft 548 kts 39°
2026-04-25 06:49 27.64421 -41.76074 38089 ft 548 kts 39°
2026-04-25 06:49 27.69476 -41.69641 38089 ft 547 kts 39°
2026-04-25 06:50 27.74517 -41.63216 38086 ft 547 kts 39°
2026-04-25 06:50 27.79528 -41.56820 38089 ft 546 kts 39°
2026-04-25 06:51 27.84559 -41.50388 38089 ft 546 kts 39°
2026-04-25 06:51 27.89577 -41.43963 38089 ft 545 kts 40°
2026-04-25 06:52 27.94589 -41.37535 38094 ft 545 kts 40°
2026-04-25 06:52 27.99589 -41.31114 38088 ft 544 kts 40°
2026-04-25 06:53 28.04557 -41.24724 38090 ft 543 kts 40°
2026-04-25 06:53 28.09533 -41.18314 38089 ft 542 kts 40°
2026-04-25 06:54 28.14504 -41.11901 38080 ft 541 kts 40°
2026-04-25 06:54 28.19459 -41.05498 38085 ft 540 kts 40°
2026-04-25 06:55 28.24411 -40.99092 38089 ft 540 kts 40°
2026-04-25 06:55 28.29324 -40.92724 38091 ft 539 kts 40°
2026-04-25 06:56 28.34251 -40.86328 38090 ft 538 kts 41°
2026-04-25 06:56 28.39179 -40.79920 38089 ft 537 kts 41°
2026-04-25 06:57 28.44083 -40.73533 38089 ft 537 kts 41°
2026-04-25 06:57 28.48962 -40.67169 38091 ft 536 kts 41°
2026-04-25 06:58 28.53845 -40.60791 38090 ft 535 kts 41°
2026-04-25 06:58 28.58725 -40.54409 38092 ft 534 kts 41°
2026-04-25 06:59 28.63593 -40.48031 38090 ft 533 kts 41°
2026-04-25 06:59 28.68454 -40.41654 38088 ft 532 kts 41°
2026-04-25 07:00 28.73272 -40.35321 38087 ft 531 kts 42°
2026-04-25 07:00 28.78104 -40.28963 38090 ft 530 kts 42°
2026-04-25 07:01 28.82933 -40.22597 38090 ft 530 kts 42°
2026-04-25 07:01 28.87736 -40.16257 38090 ft 529 kts 42°
2026-04-25 07:02 28.92540 -40.09904 38092 ft 528 kts 42°
2026-04-25 07:02 28.97304 -40.03595 38094 ft 527 kts 42°
2026-04-25 07:03 29.02095 -39.97298 38095 ft 524 kts 40°
2026-04-25 07:03 29.07163 -39.91353 38099 ft 520 kts 38°
2026-04-25 07:04 29.12287 -39.85519 38097 ft 520 kts 38°
2026-04-25 07:04 29.17331 -39.79660 38089 ft 520 kts 39°
2026-04-25 07:05 29.22373 -39.73722 38096 ft 520 kts 39°
2026-04-25 07:05 29.27401 -39.67776 38094 ft 520 kts 39°
2026-04-25 07:06 29.32433 -39.61820 38098 ft 520 kts 39°
2026-04-25 07:06 29.37459 -39.55868 38095 ft 520 kts 39°
2026-04-25 07:07 29.42453 -39.49944 38096 ft 519 kts 39°
2026-04-25 07:07 29.47466 -39.43989 38098 ft 519 kts 39°
2026-04-25 07:08 29.52476 -39.38029 38095 ft 519 kts 39°
2026-04-25 07:08 29.57492 -39.32052 38096 ft 519 kts 39°
2026-04-25 07:09 29.62499 -39.26076 38094 ft 519 kts 39°
2026-04-25 07:09 29.67463 -39.20143 38082 ft 518 kts 39°
2026-04-25 07:10 29.72461 -39.14161 38093 ft 518 kts 40°
2026-04-25 07:10 29.77447 -39.08183 38101 ft 518 kts 40°
2026-04-25 07:11 29.82404 -39.02231 38093 ft 518 kts 40°
2026-04-25 07:11 29.87379 -38.96249 38098 ft 517 kts 40°
2026-04-25 07:12 29.92353 -38.90258 38094 ft 517 kts 40°
2026-04-25 07:12 29.99803 -38.81267 38095 ft 516 kts 40°
2026-04-25 07:13 30.04757 -38.75278 38095 ft 516 kts 40°
2026-04-25 07:13 30.09677 -38.69321 38095 ft 515 kts 40°
2026-04-25 07:14 30.14611 -38.63337 38095 ft 515 kts 40°
2026-04-25 07:14 30.19547 -38.57341 38097 ft 514 kts 40°
2026-04-25 07:15 30.24468 -38.51353 38095 ft 513 kts 40°
2026-04-25 07:15 30.29347 -38.45409 38098 ft 513 kts 40°
2026-04-25 07:16 30.34257 -38.39417 38100 ft 512 kts 40°
2026-04-25 07:16 30.39158 -38.33427 38093 ft 512 kts 40°
2026-04-25 07:17 30.44048 -38.27441 38094 ft 511 kts 40°
2026-04-25 07:17 30.48910 -38.21481 38092 ft 511 kts 40°
2026-04-25 07:18 30.53783 -38.15497 38101 ft 511 kts 40°
2026-04-25 07:18 30.58658 -38.09501 38085 ft 510 kts 41°
2026-04-25 07:19 30.63518 -38.03514 38088 ft 510 kts 41°
2026-04-25 07:19 30.68353 -37.97549 38093 ft 509 kts 41°
2026-04-25 07:20 30.73195 -37.91566 38095 ft 509 kts 41°
2026-04-25 07:20 30.78039 -37.85570 38092 ft 508 kts 41°
2026-04-25 07:21 30.82878 -37.79572 38094 ft 508 kts 41°
2026-04-25 07:21 30.87677 -37.73614 38094 ft 507 kts 41°
2026-04-25 07:22 30.92491 -37.67627 38090 ft 507 kts 41°
2026-04-25 07:22 30.97309 -37.61628 38087 ft 506 kts 41°
2026-04-25 07:23 31.02112 -37.55635 38095 ft 506 kts 41°
2026-04-25 07:23 31.06918 -37.49631 38083 ft 505 kts 41°
2026-04-25 07:24 31.11703 -37.43643 38090 ft 505 kts 41°
2026-04-25 07:24 31.16458 -37.37682 38091 ft 504 kts 41°
2026-04-25 07:25 31.21230 -37.31692 38088 ft 504 kts 41°
2026-04-25 07:25 31.26004 -37.25690 38090 ft 504 kts 41°
2026-04-25 07:26 31.30773 -37.19684 38086 ft 503 kts 41°
2026-04-25 07:26 31.35493 -37.13730 38087 ft 503 kts 41°
2026-04-25 07:27 31.40241 -37.07732 38086 ft 502 kts 41°
2026-04-25 07:27 31.44983 -37.01732 38088 ft 502 kts 41°
2026-04-25 07:28 31.49725 -36.95721 38085 ft 502 kts 41°
2026-04-25 07:28 31.54427 -36.89751 38087 ft 501 kts 41°
2026-04-25 07:29 31.59145 -36.83753 38089 ft 501 kts 41°
2026-04-25 07:29 31.63869 -36.77736 38085 ft 500 kts 41°
2026-04-25 07:30 31.68580 -36.71727 38081 ft 500 kts 42°
2026-04-25 07:30 31.73284 -36.65717 38092 ft 499 kts 42°
2026-04-25 07:31 31.77950 -36.59746 38088 ft 499 kts 42°
2026-04-25 07:31 31.82642 -36.53731 38087 ft 499 kts 42°
2026-04-25 07:32 31.87318 -36.47728 38089 ft 498 kts 42°
2026-04-25 07:32 31.91994 -36.41714 38089 ft 498 kts 42°
2026-04-25 07:33 31.96638 -36.35733 38082 ft 497 kts 42°
2026-04-25 07:33 32.01302 -36.29716 38087 ft 497 kts 42°
2026-04-25 07:34 32.05957 -36.23700 38087 ft 497 kts 42°
2026-04-25 07:34 32.10609 -36.17680 38088 ft 496 kts 42°
2026-04-25 07:35 32.15254 -36.11658 38086 ft 496 kts 42°
2026-04-25 07:35 32.19857 -36.05681 38086 ft 496 kts 42°
2026-04-25 07:36 32.24491 -35.99654 38093 ft 495 kts 42°
2026-04-25 07:36 32.29115 -35.93630 38074 ft 495 kts 42°
2026-04-25 07:37 32.33735 -35.87601 38084 ft 495 kts 42°
2026-04-25 07:37 32.38357 -35.81559 38083 ft 494 kts 42°
2026-04-25 07:38 32.42922 -35.75583 38084 ft 494 kts 42°
2026-04-25 07:38 32.47535 -35.69534 38083 ft 494 kts 42°
2026-04-25 07:39 32.52136 -35.63490 38084 ft 493 kts 42°
2026-04-25 07:39 32.56726 -35.57452 38086 ft 493 kts 42°
2026-04-25 07:40 32.61285 -35.51443 38087 ft 493 kts 42°
2026-04-25 07:40 32.65861 -35.45402 38084 ft 493 kts 42°
2026-04-25 07:41 32.70436 -35.39353 38080 ft 492 kts 43°
2026-04-25 07:41 32.74986 -35.33327 38082 ft 492 kts 43°
2026-04-25 07:42 32.79583 -35.27230 38080 ft 492 kts 43°
2026-04-25 07:42 32.84112 -35.21211 38082 ft 492 kts 43°
2026-04-25 07:43 32.88676 -35.15135 38083 ft 492 kts 43°
2026-04-25 07:43 32.93224 -35.09072 38081 ft 492 kts 43°
2026-04-25 07:44 32.97775 -35.02995 38083 ft 492 kts 43°
2026-04-25 07:44 33.02327 -34.97001 38086 ft 490 kts 40°
2026-04-25 07:45 33.07202 -34.91372 38077 ft 487 kts 38°
2026-04-25 07:45 33.12136 -34.85817 38078 ft 487 kts 38°
2026-04-25 07:46 33.17010 -34.80200 38080 ft 488 kts 39°
2026-04-25 07:46 33.21860 -34.74531 38084 ft 488 kts 39°
2026-04-25 07:47 33.26667 -34.68889 38064 ft 488 kts 39°
2026-04-25 07:47 33.31493 -34.63221 38073 ft 487 kts 39°
2026-04-25 07:48 33.36331 -34.57533 38074 ft 487 kts 39°
2026-04-25 07:48 33.41162 -34.51845 38070 ft 487 kts 39°
2026-04-25 07:49 33.45954 -34.46194 38074 ft 487 kts 39°
2026-04-25 07:49 33.50769 -34.40505 38072 ft 487 kts 39°
2026-04-25 07:50 33.55596 -34.34793 38071 ft 487 kts 39°
2026-04-25 07:50 33.60405 -34.29093 38077 ft 487 kts 39°
2026-04-25 07:51 33.65198 -34.23402 38071 ft 487 kts 39°
2026-04-25 07:51 33.70005 -34.17685 38071 ft 487 kts 39°
2026-04-25 07:52 33.74816 -34.11955 38070 ft 487 kts 40°
2026-04-25 07:52 33.79621 -34.06221 38073 ft 487 kts 40°
2026-04-25 07:53 33.84437 -34.00464 38072 ft 488 kts 40°
2026-04-25 07:53 33.89248 -33.94705 38068 ft 488 kts 40°
2026-04-25 07:54 33.94014 -33.88989 38071 ft 488 kts 40°
2026-04-25 07:54 33.98822 -33.83214 38070 ft 488 kts 40°
2026-04-25 07:55 34.03632 -33.77425 38069 ft 488 kts 40°
2026-04-25 07:55 34.08438 -33.71632 38068 ft 489 kts 40°
2026-04-25 07:56 34.13243 -33.65831 38067 ft 489 kts 40°
2026-04-25 07:56 34.18014 -33.60060 38068 ft 489 kts 40°
2026-04-25 07:57 34.22828 -33.54228 38073 ft 489 kts 40°
2026-04-25 07:57 34.27635 -33.48394 38071 ft 490 kts 40°
2026-04-25 07:58 34.32411 -33.42588 38071 ft 490 kts 40°
2026-04-25 07:58 34.37212 -33.36741 38066 ft 490 kts 40°
2026-04-25 07:59 34.42014 -33.30884 38062 ft 490 kts 40°
2026-04-25 07:59 34.46823 -33.25006 38065 ft 491 kts 40°
2026-04-25 08:00 34.51596 -33.19164 38068 ft 491 kts 41°
2026-04-25 08:00 34.56393 -33.13281 38068 ft 491 kts 41°
2026-04-25 08:01 34.61202 -33.07375 38070 ft 492 kts 41°
2026-04-25 08:01 34.66010 -33.01458 38069 ft 492 kts 41°
2026-04-25 08:02 34.70811 -32.95541 38066 ft 492 kts 41°
2026-04-25 08:02 34.75620 -32.89602 38068 ft 493 kts 41°
2026-04-25 08:03 34.80395 -32.83695 38069 ft 493 kts 41°
2026-04-25 08:03 34.85208 -32.77730 38066 ft 494 kts 41°
2026-04-25 08:04 34.90026 -32.71749 38076 ft 495 kts 41°
2026-04-25 08:04 34.94840 -32.65763 38062 ft 495 kts 41°
2026-04-25 08:05 34.99631 -32.59793 38062 ft 495 kts 41°
2026-04-25 08:05 35.04446 -32.53783 38064 ft 496 kts 42°
2026-04-25 08:06 35.09274 -32.47746 38068 ft 496 kts 42°
2026-04-25 08:06 35.14090 -32.41714 38067 ft 497 kts 42°
2026-04-25 08:07 35.18879 -32.35705 38065 ft 497 kts 42°
2026-04-25 08:07 35.23699 -32.29645 38061 ft 498 kts 42°
2026-04-25 08:08 35.28533 -32.23558 38067 ft 498 kts 42°
2026-04-25 08:08 35.33368 -32.17457 38049 ft 499 kts 42°
2026-04-25 08:09 35.38195 -32.11356 38072 ft 500 kts 43°
2026-04-25 08:09 35.43001 -32.05269 38071 ft 500 kts 43°
2026-04-25 08:10 35.47837 -31.99134 38061 ft 501 kts 43°
2026-04-25 08:10 35.52680 -31.92978 38065 ft 501 kts 43°
2026-04-25 08:11 35.57518 -31.86818 38061 ft 502 kts 43°
2026-04-25 08:11 35.62338 -31.80669 38062 ft 502 kts 43°
2026-04-25 08:12 35.67182 -31.74478 38060 ft 503 kts 43°
2026-04-25 08:12 35.72021 -31.68283 38058 ft 503 kts 43°
2026-04-25 08:13 35.76872 -31.62059 38057 ft 504 kts 43°
2026-04-25 08:14 35.84121 -31.52737 38065 ft 505 kts 43°
2026-04-25 08:14 35.88979 -31.46475 38061 ft 505 kts 43°
2026-04-25 08:15 35.93846 -31.40190 38060 ft 506 kts 43°
2026-04-25 08:15 35.98698 -31.33912 38058 ft 506 kts 43°
2026-04-25 08:16 36.03525 -31.27655 38057 ft 507 kts 44°
2026-04-25 08:16 36.08381 -31.21347 38060 ft 507 kts 44°
2026-04-25 08:17 36.13247 -31.15016 38058 ft 508 kts 44°
2026-04-25 08:17 36.18118 -31.08665 38059 ft 508 kts 44°
2026-04-25 08:18 36.22947 -31.02358 38060 ft 509 kts 44°
2026-04-25 08:18 36.27816 -30.95984 38063 ft 509 kts 44°
2026-04-25 08:19 36.32683 -30.89602 38060 ft 510 kts 44°
2026-04-25 08:19 36.37550 -30.83207 38063 ft 510 kts 44°
2026-04-25 08:20 36.42427 -30.76787 38062 ft 510 kts 44°
2026-04-25 08:20 36.47252 -30.70422 38064 ft 511 kts 44°
2026-04-25 08:21 36.52119 -30.63989 38064 ft 511 kts 44°
2026-04-25 08:21 36.56991 -30.57538 38060 ft 511 kts 44°
2026-04-25 08:22 36.61856 -30.51082 38058 ft 512 kts 44°
2026-04-25 08:22 36.66735 -30.44596 38061 ft 512 kts 44°
2026-04-25 08:23 36.71565 -30.38161 38058 ft 513 kts 45°
2026-04-25 08:23 36.76445 -30.31648 38061 ft 514 kts 45°
2026-04-25 08:24 36.81312 -30.25138 38058 ft 514 kts 45°
2026-04-25 08:24 36.86187 -30.18604 38060 ft 514 kts 45°
2026-04-25 08:25 36.91030 -30.12101 38062 ft 515 kts 45°
2026-04-25 08:25 36.95905 -30.05541 38059 ft 515 kts 45°
2026-04-25 08:26 37.00781 -29.98967 38059 ft 515 kts 45°
2026-04-25 08:26 37.05545 -29.92253 38060 ft 516 kts 47°
2026-04-25 08:27 37.10224 -29.85433 38059 ft 517 kts 47°
2026-04-25 08:27 37.14907 -29.78641 38060 ft 517 kts 47°
2026-04-25 08:28 37.19619 -29.71843 38054 ft 518 kts 47°
2026-04-25 08:28 37.24356 -29.65008 38056 ft 518 kts 47°
2026-04-25 08:29 37.29086 -29.58169 38055 ft 519 kts 47°
2026-04-25 08:29 37.33777 -29.51369 38056 ft 519 kts 47°
2026-04-25 08:30 37.38511 -29.44493 38055 ft 520 kts 47°
2026-04-25 08:30 37.43231 -29.37622 38057 ft 520 kts 47°
2026-04-25 08:31 37.47959 -29.30724 38056 ft 521 kts 47°
2026-04-25 08:31 37.52663 -29.23847 38054 ft 521 kts 47°
2026-04-25 08:32 37.57393 -29.16917 38061 ft 522 kts 47°
2026-04-25 08:32 37.62125 -29.09971 38040 ft 522 kts 47°
2026-04-25 08:33 37.66854 -29.03013 38045 ft 523 kts 47°
2026-04-25 08:33 37.71599 -28.96017 38065 ft 523 kts 47°
2026-04-25 08:34 37.76298 -28.89074 38045 ft 524 kts 47°
2026-04-25 08:34 37.81026 -28.82074 38041 ft 524 kts 47°
2026-04-25 08:35 37.85755 -28.75056 38066 ft 525 kts 47°
2026-04-25 08:35 37.90495 -28.68007 38050 ft 525 kts 47°
2026-04-25 08:36 37.95215 -28.60972 38049 ft 525 kts 47°
2026-04-25 08:36 37.99925 -28.53937 38060 ft 526 kts 47°
2026-04-25 08:37 38.04647 -28.46869 38052 ft 526 kts 47°
2026-04-25 08:37 38.09375 -28.39775 38050 ft 526 kts 47°
2026-04-25 08:38 38.14096 -28.32677 38048 ft 527 kts 48°
2026-04-25 08:38 38.18819 -28.25561 38051 ft 527 kts 48°
2026-04-25 08:39 38.23508 -28.18480 38050 ft 527 kts 48°
2026-04-25 08:39 38.28200 -28.11380 38043 ft 527 kts 48°
2026-04-25 08:40 38.32919 -28.04221 38047 ft 528 kts 48°
2026-04-25 08:40 38.37632 -27.97057 38048 ft 528 kts 48°
2026-04-25 08:41 38.42309 -27.89931 38050 ft 528 kts 48°
2026-04-25 08:41 38.47021 -27.82736 38047 ft 528 kts 48°
2026-04-25 08:42 38.51723 -27.75541 38048 ft 528 kts 48°
2026-04-25 08:42 38.56413 -27.68347 38047 ft 528 kts 48°
2026-04-25 08:43 38.61107 -27.61131 38047 ft 528 kts 48°
2026-04-25 08:43 38.65761 -27.53960 38043 ft 528 kts 48°
2026-04-25 08:44 38.70446 -27.46727 38039 ft 528 kts 48°
2026-04-25 08:44 38.75136 -27.39468 38036 ft 528 kts 49°
2026-04-25 08:45 38.79805 -27.32224 38031 ft 528 kts 49°
2026-04-25 08:45 38.84448 -27.25006 38029 ft 528 kts 49°
2026-04-25 08:46 38.89119 -27.17728 38030 ft 528 kts 49°
2026-04-25 08:46 38.93781 -27.10447 38033 ft 528 kts 49°
2026-04-25 08:47 38.98441 -27.03152 38036 ft 528 kts 49°
2026-04-25 08:47 39.03068 -26.95893 38040 ft 528 kts 49°
2026-04-25 08:48 39.07725 -26.88568 38046 ft 528 kts 49°
2026-04-25 08:48 39.12377 -26.81236 38042 ft 528 kts 49°
2026-04-25 08:49 39.17021 -26.73899 38042 ft 529 kts 49°
2026-04-25 08:49 39.21660 -26.66553 38043 ft 529 kts 49°
2026-04-25 08:50 39.26274 -26.59230 38041 ft 528 kts 49°
2026-04-25 08:50 39.30899 -26.51873 38043 ft 528 kts 49°
2026-04-25 08:51 39.35528 -26.44492 38042 ft 528 kts 49°
2026-04-25 08:51 39.40115 -26.37160 38042 ft 528 kts 49°
2026-04-25 08:52 39.44729 -26.29769 38041 ft 528 kts 49°
2026-04-25 08:52 39.49339 -26.22366 38040 ft 528 kts 50°
2026-04-25 08:53 39.53945 -26.14951 38044 ft 528 kts 50°
2026-04-25 08:53 39.58536 -26.07545 38038 ft 528 kts 50°
2026-04-25 08:54 39.63102 -26.00162 38038 ft 528 kts 50°
2026-04-25 08:54 39.67681 -25.92740 38038 ft 527 kts 50°
2026-04-25 08:55 39.72265 -25.85291 38034 ft 527 kts 50°
2026-04-25 08:55 39.76056 -25.79118 38035 ft 527 kts 50°
2026-04-25 08:56 39.81371 -25.70443 38029 ft 527 kts 50°
2026-04-25 08:56 39.85930 -25.62983 38032 ft 527 kts 50°
2026-04-25 08:57 39.90488 -25.55507 38028 ft 527 kts 50°
2026-04-25 08:57 39.95036 -25.48029 38029 ft 527 kts 50°
2026-04-25 08:58 39.99556 -25.40580 38029 ft 527 kts 51°
2026-04-25 08:58 40.04100 -25.33073 38028 ft 527 kts 51°
2026-04-25 08:59 40.07867 -25.26836 38028 ft 527 kts 51°
2026-04-25 08:59 40.12405 -25.19305 38027 ft 527 kts 51°
2026-04-25 09:00 40.16936 -25.11769 38025 ft 527 kts 51°
2026-04-25 09:00 40.21426 -25.04283 38026 ft 527 kts 51°
2026-04-25 09:01 40.25945 -24.96731 38026 ft 527 kts 51°
2026-04-25 09:01 40.30454 -24.89176 38025 ft 527 kts 51°
2026-04-25 09:02 40.35696 -24.80371 38025 ft 527 kts 51°
2026-04-25 09:02 40.40197 -24.72790 38023 ft 527 kts 51°
2026-04-25 09:03 40.43938 -24.66476 38020 ft 527 kts 51°
2026-04-25 09:03 40.48436 -24.58867 38024 ft 528 kts 52°
2026-04-25 09:04 40.52938 -24.51231 38024 ft 528 kts 52°
2026-04-25 09:04 40.57427 -24.43599 38025 ft 528 kts 52°
2026-04-25 09:05 40.61877 -24.36015 38024 ft 528 kts 52°
2026-04-25 09:05 40.66360 -24.28356 38022 ft 528 kts 52°
2026-04-25 09:06 40.70839 -24.20685 38024 ft 528 kts 52°
2026-04-25 09:06 40.75311 -24.13007 38023 ft 528 kts 52°
2026-04-25 09:07 40.79751 -24.05365 38023 ft 528 kts 52°
2026-04-25 09:07 40.84210 -23.97670 38022 ft 528 kts 52°
2026-04-25 09:08 40.88675 -23.89947 38022 ft 528 kts 52°
2026-04-25 09:08 40.93121 -23.82237 38020 ft 528 kts 52°
2026-04-25 09:09 40.97581 -23.74484 38019 ft 529 kts 52°
2026-04-25 09:09 41.01998 -23.66785 38023 ft 529 kts 53°
2026-04-25 09:10 41.06437 -23.59029 38023 ft 529 kts 53°
2026-04-25 09:10 41.10875 -23.51255 38022 ft 529 kts 53°
2026-04-25 09:11 41.17522 -23.39576 38021 ft 529 kts 53°
2026-04-25 09:11 41.21951 -23.31769 38022 ft 529 kts 53°
2026-04-25 09:12 41.26349 -23.23995 38021 ft 529 kts 53°
2026-04-25 09:12 41.30768 -23.16166 38021 ft 530 kts 53°
2026-04-25 09:13 41.35188 -23.08315 38024 ft 530 kts 53°
2026-04-25 09:13 41.39571 -23.00511 38021 ft 530 kts 53°
2026-04-25 09:14 41.43976 -22.92646 38017 ft 530 kts 53°
2026-04-25 09:14 41.48381 -22.84759 38022 ft 530 kts 53°
2026-04-25 09:15 41.52778 -22.76869 38029 ft 530 kts 53°
2026-04-25 09:15 41.57181 -22.68947 38026 ft 530 kts 53°
2026-04-25 09:16 41.61540 -22.61083 38023 ft 531 kts 54°
2026-04-25 09:16 41.65926 -22.53151 38024 ft 531 kts 54°
2026-04-25 09:17 41.72501 -22.41219 38027 ft 531 kts 54°
2026-04-25 09:18 41.76877 -22.33254 38027 ft 531 kts 54°
2026-04-25 09:18 41.81246 -22.25278 38024 ft 531 kts 54°
2026-04-25 09:19 41.85584 -22.17340 38021 ft 531 kts 54°
2026-04-25 09:19 41.89953 -22.09324 38022 ft 531 kts 54°
2026-04-25 09:20 41.94299 -22.01327 38024 ft 531 kts 54°
2026-04-25 09:20 41.98629 -21.93341 38025 ft 531 kts 54°
2026-04-25 09:21 42.02973 -21.85306 38022 ft 532 kts 54°
2026-04-25 09:21 42.07312 -21.77260 38025 ft 532 kts 54°
2026-04-25 09:22 42.11649 -21.69195 38025 ft 532 kts 54°
2026-04-25 09:22 42.15989 -21.61105 38024 ft 532 kts 54°
2026-04-25 09:23 42.20309 -21.53029 38022 ft 532 kts 54°
2026-04-25 09:23 42.24606 -21.44976 38023 ft 532 kts 54°
2026-04-25 09:24 42.28916 -21.36876 38024 ft 532 kts 54°
2026-04-25 09:24 42.33231 -21.28745 38026 ft 532 kts 55°
2026-04-25 09:25 42.37534 -21.20613 38030 ft 532 kts 55°
2026-04-25 09:25 42.41801 -21.12528 38029 ft 532 kts 55°
2026-04-25 09:26 42.46098 -21.04366 38033 ft 532 kts 55°
2026-04-25 09:26 42.50391 -20.96188 38031 ft 532 kts 55°
2026-04-25 09:27 42.54672 -20.88010 38032 ft 532 kts 55°
2026-04-25 09:27 42.58925 -20.79863 38029 ft 532 kts 55°
2026-04-25 09:28 42.63192 -20.71670 38029 ft 532 kts 55°
2026-04-25 09:28 42.67457 -20.63455 38034 ft 532 kts 55°
2026-04-25 09:29 42.71712 -20.55238 38034 ft 532 kts 55°
2026-04-25 09:29 42.75963 -20.47006 38035 ft 532 kts 55°
2026-04-25 09:30 42.80180 -20.38817 38037 ft 532 kts 55°
2026-04-25 09:30 42.84418 -20.30567 38044 ft 531 kts 56°
2026-04-25 09:31 42.88647 -20.22309 38041 ft 531 kts 56°
2026-04-25 09:31 42.92879 -20.14021 38041 ft 531 kts 56°
2026-04-25 09:32 42.97066 -20.05801 38051 ft 532 kts 56°
2026-04-25 09:32 43.00899 -19.97184 38054 ft 530 kts 66°
2026-04-25 09:33 43.03963 -19.88018 38052 ft 530 kts 68°
2026-04-25 09:33 43.06930 -19.78807 38052 ft 530 kts 68°
2026-04-25 09:34 43.09883 -19.69621 38060 ft 530 kts 68°
2026-04-25 09:34 43.12852 -19.60398 38058 ft 530 kts 68°
2026-04-25 09:35 43.15822 -19.51157 38062 ft 530 kts 68°
2026-04-25 09:35 43.18785 -19.41906 38063 ft 530 kts 68°
2026-04-25 09:36 43.21723 -19.32699 38065 ft 530 kts 68°
2026-04-25 09:36 43.24670 -19.23431 38067 ft 530 kts 68°
2026-04-25 09:37 43.27612 -19.14147 38075 ft 530 kts 68°
2026-04-25 09:37 43.30542 -19.04868 38074 ft 530 kts 68°
2026-04-25 09:38 43.33474 -18.95551 38077 ft 530 kts 68°
2026-04-25 09:38 43.36366 -18.86325 38086 ft 530 kts 68°
2026-04-25 09:39 43.39279 -18.77004 38085 ft 530 kts 68°
2026-04-25 09:39 43.42179 -18.67688 38087 ft 530 kts 68°
2026-04-25 09:40 43.46513 -18.53703 38090 ft 529 kts 68°
2026-04-25 09:40 43.49373 -18.44437 38089 ft 529 kts 68°
2026-04-25 09:41 43.52243 -18.35100 38112 ft 529 kts 68°
2026-04-25 09:41 43.55098 -18.25783 38114 ft 528 kts 68°
2026-04-25 09:42 43.57951 -18.16434 38113 ft 527 kts 68°
2026-04-25 09:42 43.60764 -18.07188 38113 ft 526 kts 68°
2026-04-25 09:43 43.63586 -17.97874 38117 ft 526 kts 69°
2026-04-25 09:43 43.66396 -17.88569 38120 ft 525 kts 69°
2026-04-25 09:44 43.69199 -17.79251 38126 ft 525 kts 69°
2026-04-25 09:44 43.71975 -17.69992 38127 ft 524 kts 69°
2026-04-25 09:45 43.74755 -17.60683 38130 ft 524 kts 69°
2026-04-25 09:45 43.77529 -17.51362 38136 ft 524 kts 69°
2026-04-25 09:46 43.80294 -17.42038 38138 ft 524 kts 69°
2026-04-25 09:46 43.83049 -17.32713 38140 ft 523 kts 69°
2026-04-25 09:47 43.85795 -17.23382 38140 ft 523 kts 69°
2026-04-25 09:47 43.88521 -17.14087 38145 ft 523 kts 69°
2026-04-25 09:48 43.91250 -17.04746 38148 ft 523 kts 69°
2026-04-25 09:48 43.93967 -16.95414 38149 ft 523 kts 69°
2026-04-25 09:49 43.96684 -16.86047 38150 ft 523 kts 69°
2026-04-25 09:49 43.99392 -16.76675 38154 ft 522 kts 70°
2026-04-25 09:50 44.02070 -16.67372 38154 ft 522 kts 70°
2026-04-25 09:50 44.04751 -16.58022 38156 ft 522 kts 70°
2026-04-25 09:51 44.07434 -16.48632 38154 ft 521 kts 70°
2026-04-25 09:51 44.10095 -16.39282 38163 ft 520 kts 70°
2026-04-25 09:52 44.12737 -16.29965 38166 ft 520 kts 70°
2026-04-25 09:52 44.15379 -16.20613 38162 ft 519 kts 70°
2026-04-25 09:53 44.18010 -16.11264 38163 ft 519 kts 70°
2026-04-25 09:53 44.20632 -16.01914 38168 ft 518 kts 70°
2026-04-25 09:54 44.23244 -15.92561 38169 ft 517 kts 70°
2026-04-25 09:54 44.25828 -15.83275 38171 ft 517 kts 70°
2026-04-25 09:55 44.28421 -15.73922 38171 ft 516 kts 70°
2026-04-25 09:55 44.30999 -15.64585 38173 ft 516 kts 70°
2026-04-25 09:56 44.33571 -15.55236 38173 ft 515 kts 70°
2026-04-25 09:56 44.36114 -15.45955 38173 ft 515 kts 70°
2026-04-25 09:57 44.38671 -15.36587 38176 ft 515 kts 70°
2026-04-25 09:57 44.41211 -15.27246 38179 ft 514 kts 70°
2026-04-25 09:58 44.43731 -15.17941 38177 ft 514 kts 70°
2026-04-25 09:58 44.46270 -15.08534 38181 ft 513 kts 71°
2026-04-25 09:59 44.48761 -14.99264 38181 ft 513 kts 71°
2026-04-25 09:59 44.51264 -14.89911 38181 ft 512 kts 71°
2026-04-25 10:00 44.53754 -14.80573 38179 ft 512 kts 71°
2026-04-25 10:00 44.56238 -14.71224 38183 ft 511 kts 71°
2026-04-25 10:01 44.58698 -14.61925 38188 ft 511 kts 71°
2026-04-25 10:01 44.61159 -14.52587 38190 ft 511 kts 71°
2026-04-25 10:02 44.63615 -14.43233 38191 ft 510 kts 71°
2026-04-25 10:02 44.66059 -14.33884 38186 ft 510 kts 71°
2026-04-25 10:03 44.68492 -14.24540 38188 ft 510 kts 71°
2026-04-25 10:03 44.70906 -14.15235 38194 ft 510 kts 71°
2026-04-25 10:04 44.73324 -14.05877 38199 ft 510 kts 71°
2026-04-25 10:04 44.75739 -13.96494 38194 ft 509 kts 71°
2026-04-25 10:05 44.78139 -13.87132 38195 ft 509 kts 71°
2026-04-25 10:05 44.80519 -13.77807 38195 ft 509 kts 71°
2026-04-25 10:06 44.82908 -13.68412 38199 ft 509 kts 71°
2026-04-25 10:06 44.85284 -13.59028 38197 ft 509 kts 71°
2026-04-25 10:07 44.87660 -13.49608 38200 ft 509 kts 71°
2026-04-25 10:07 44.90023 -13.40202 38197 ft 509 kts 71°
2026-04-25 10:08 44.92364 -13.30844 38197 ft 509 kts 71°
2026-04-25 10:08 44.94713 -13.21413 38200 ft 509 kts 71°
2026-04-25 10:09 44.97055 -13.11974 38205 ft 509 kts 71°
2026-04-25 10:09 44.99388 -13.02534 38203 ft 509 kts 71°
2026-04-25 10:10 45.01739 -12.93112 38208 ft 509 kts 70°
2026-04-25 10:10 45.04160 -12.83771 38209 ft 509 kts 70°
2026-04-25 10:11 45.06594 -12.74359 38209 ft 509 kts 70°
2026-04-25 10:11 45.08998 -12.64957 38212 ft 509 kts 70°
2026-04-25 10:12 45.11390 -12.55531 38213 ft 508 kts 70°
2026-04-25 10:13 45.14939 -12.41475 38210 ft 508 kts 70°
2026-04-25 10:13 45.17307 -12.32050 38213 ft 508 kts 70°
2026-04-25 10:14 45.19668 -12.22618 38214 ft 507 kts 71°
2026-04-25 10:14 45.22020 -12.13181 38216 ft 507 kts 71°
2026-04-25 10:15 45.24349 -12.03798 38215 ft 507 kts 71°
2026-04-25 10:15 45.26682 -11.94361 38216 ft 507 kts 71°
2026-04-25 10:16 45.29006 -11.84923 38216 ft 506 kts 71°
2026-04-25 10:16 45.31325 -11.75460 38218 ft 506 kts 71°
2026-04-25 10:17 45.33614 -11.66086 38218 ft 506 kts 71°
2026-04-25 10:17 45.35910 -11.56639 38219 ft 505 kts 71°
2026-04-25 10:18 45.38198 -11.47189 38222 ft 505 kts 71°
2026-04-25 10:18 45.40478 -11.37733 38218 ft 505 kts 71°
2026-04-25 10:19 45.42752 -11.28259 38222 ft 505 kts 72°
2026-04-25 10:19 45.44997 -11.18865 38219 ft 505 kts 72°
2026-04-25 10:20 45.47255 -11.09381 38223 ft 506 kts 72°
2026-04-25 10:20 45.49504 -10.99890 38221 ft 506 kts 72°
2026-04-25 10:21 45.51748 -10.90382 38223 ft 506 kts 72°
2026-04-25 10:21 45.53972 -10.80918 38220 ft 506 kts 72°
2026-04-25 10:22 45.56205 -10.71374 38223 ft 506 kts 72°
2026-04-25 10:22 45.58424 -10.61849 38227 ft 506 kts 72°
2026-04-25 10:23 45.60638 -10.52302 38225 ft 507 kts 72°
2026-04-25 10:23 45.62831 -10.42807 38225 ft 506 kts 72°
2026-04-25 10:24 45.65026 -10.33256 38223 ft 506 kts 72°
2026-04-25 10:24 45.67219 -10.23678 38224 ft 506 kts 73°
2026-04-25 10:25 45.69381 -10.14191 38224 ft 505 kts 73°
2026-04-25 10:25 45.71549 -10.04636 38223 ft 505 kts 73°
2026-04-25 10:26 45.73709 -9.95072 38225 ft 505 kts 73°
2026-04-25 10:26 45.75857 -9.85519 38227 ft 505 kts 73°
2026-04-25 10:27 45.78002 -9.75936 38222 ft 505 kts 73°
2026-04-25 10:27 45.80137 -9.66356 38223 ft 505 kts 73°
2026-04-25 10:28 45.82249 -9.56838 38222 ft 505 kts 73°
2026-04-25 10:28 45.84366 -9.47251 38223 ft 504 kts 73°
2026-04-25 10:29 45.86475 -9.37656 38225 ft 504 kts 73°
2026-04-25 10:29 45.88575 -9.28058 38221 ft 504 kts 73°
2026-04-25 10:30 45.90666 -9.18457 38221 ft 503 kts 73°
2026-04-25 10:30 45.92732 -9.08932 38224 ft 503 kts 74°
2026-04-25 10:31 45.94804 -8.99328 38223 ft 503 kts 74°
2026-04-25 10:31 45.96865 -8.89738 38226 ft 502 kts 74°
2026-04-25 10:32 45.98913 -8.80148 38224 ft 501 kts 74°
2026-04-25 10:32 46.00002 -8.70488 38229 ft 497 kts 90°
2026-04-25 10:33 46.00099 -8.60582 38223 ft 496 kts 91°
2026-04-25 10:33 46.00085 -8.50661 38227 ft 496 kts 92°
2026-04-25 10:34 46.00070 -8.40742 38225 ft 495 kts 92°
2026-04-25 10:34 46.00064 -8.30860 38225 ft 494 kts 92°
2026-04-25 10:35 46.00055 -8.21039 38226 ft 494 kts 92°
2026-04-25 10:35 46.00038 -8.11176 38223 ft 492 kts 92°
2026-04-25 10:36 46.00242 -8.01348 38221 ft 493 kts 83°
2026-04-25 10:36 46.02036 -7.91833 38191 ft 493 kts 69°
2026-04-25 10:37 46.04378 -7.82532 38224 ft 496 kts 68°
2026-04-25 10:37 46.06760 -7.73274 38222 ft 496 kts 68°
2026-04-25 10:38 46.09121 -7.63961 38217 ft 495 kts 68°
2026-04-25 10:38 46.11462 -7.54618 38220 ft 495 kts 68°
2026-04-25 10:39 46.13770 -7.45352 38218 ft 494 kts 68°
2026-04-25 10:39 46.16084 -7.36022 38217 ft 494 kts 69°
2026-04-25 10:40 46.18396 -7.26672 38212 ft 494 kts 69°
2026-04-25 10:40 46.20698 -7.17322 38215 ft 494 kts 69°
2026-04-25 10:41 46.22992 -7.07963 38214 ft 494 kts 69°
2026-04-25 10:41 46.25265 -6.98653 38208 ft 494 kts 69°
2026-04-25 10:42 46.27544 -6.89282 38207 ft 495 kts 69°
2026-04-25 10:42 46.29814 -6.79906 38208 ft 495 kts 69°
2026-04-25 10:43 46.32076 -6.70523 38208 ft 495 kts 69°
2026-04-25 10:43 46.34341 -6.61088 38204 ft 495 kts 70°
2026-04-25 10:44 46.36576 -6.51740 38206 ft 495 kts 70°
2026-04-25 10:44 46.38816 -6.42327 38205 ft 495 kts 70°
2026-04-25 10:45 46.41054 -6.32888 38201 ft 495 kts 70°
2026-04-25 10:45 46.43280 -6.23455 38201 ft 495 kts 70°
2026-04-25 10:46 46.45505 -6.13984 38200 ft 496 kts 70°
2026-04-25 10:46 46.47707 -6.04574 38197 ft 496 kts 70°
2026-04-25 10:47 46.49918 -5.95085 38198 ft 497 kts 70°
2026-04-25 10:47 46.52120 -5.85591 38197 ft 497 kts 70°
2026-04-25 10:48 46.54322 -5.76058 38193 ft 497 kts 71°
2026-04-25 10:48 46.56510 -5.66540 38188 ft 497 kts 71°
2026-04-25 10:49 46.58682 -5.57050 38186 ft 498 kts 71°
2026-04-25 10:49 46.60857 -5.47509 38189 ft 498 kts 71°
2026-04-25 10:50 46.63028 -5.37938 38185 ft 498 kts 71°
2026-04-25 10:50 46.65178 -5.28421 38180 ft 498 kts 71°
2026-04-25 10:51 46.67343 -5.18793 38178 ft 498 kts 71°
2026-04-25 10:51 46.69476 -5.09265 38178 ft 497 kts 71°
2026-04-25 10:52 46.71609 -4.99691 38175 ft 497 kts 71°
2026-04-25 10:52 46.73735 -4.90111 38176 ft 497 kts 71°
2026-04-25 10:53 46.75842 -4.80569 38173 ft 497 kts 71°
2026-04-25 10:53 46.77951 -4.70973 38169 ft 497 kts 71°
2026-04-25 10:54 46.80049 -4.61383 38169 ft 496 kts 71°
2026-04-25 10:54 46.82138 -4.51795 38170 ft 496 kts 72°
2026-04-25 10:55 46.84222 -4.42182 38167 ft 496 kts 72°
2026-04-25 10:55 46.86296 -4.32569 38164 ft 496 kts 72°
2026-04-25 10:56 46.88344 -4.23033 38162 ft 496 kts 72°
2026-04-25 10:56 46.90400 -4.13418 38161 ft 496 kts 72°
2026-04-25 10:57 46.92457 -4.03795 38148 ft 491 kts 75°
2026-04-25 10:57 46.94460 -3.94349 38159 ft 484 kts 75°
2026-04-25 10:58 46.96424 -3.85003 38157 ft 483 kts 75°
2026-04-25 10:58 46.98397 -3.75582 38156 ft 484 kts 75°
2026-04-25 10:59 47.00365 -3.66158 38153 ft 484 kts 75°
2026-04-25 10:59 47.02327 -3.56721 38155 ft 484 kts 75°
2026-04-25 11:00 47.04269 -3.47336 38152 ft 484 kts 75°
2026-04-25 11:00 47.06214 -3.37894 38152 ft 484 kts 75°
2026-04-25 11:01 47.08154 -3.28429 38150 ft 484 kts 75°
2026-04-25 11:01 47.10085 -3.18965 38154 ft 485 kts 75°
2026-04-25 11:02 47.11999 -3.09538 38149 ft 485 kts 75°
2026-04-25 11:02 47.13928 -2.99994 38150 ft 485 kts 75°
2026-04-25 11:03 47.15822 -2.90574 38141 ft 485 kts 75°
2026-04-25 11:03 47.17721 -2.81051 38151 ft 485 kts 75°
2026-04-25 11:04 47.19612 -2.71541 38158 ft 485 kts 75°
2026-04-25 11:04 47.21492 -2.62039 38148 ft 485 kts 75°
2026-04-25 11:05 47.23358 -2.52563 38153 ft 485 kts 75°
2026-04-25 11:05 47.25224 -2.43041 38152 ft 485 kts 75°
2026-04-25 11:06 47.27083 -2.33508 38158 ft 485 kts 75°
2026-04-25 11:06 47.28937 -2.23949 38157 ft 486 kts 75°
2026-04-25 11:07 47.30787 -2.14364 38158 ft 486 kts 75°
2026-04-25 11:07 47.32617 -2.04834 38157 ft 487 kts 75°
2026-04-25 11:08 47.34457 -1.95208 38157 ft 487 kts 75°
2026-04-25 11:08 47.36261 -1.85593 38149 ft 488 kts 76°
2026-04-25 11:09 47.37970 -1.75902 38135 ft 488 kts 77°
2026-04-25 11:09 47.39657 -1.66261 38128 ft 489 kts 76°
2026-04-25 11:10 47.41366 -1.56545 38131 ft 489 kts 76°
2026-04-25 11:10 47.43075 -1.46823 38130 ft 490 kts 76°
2026-04-25 11:11 47.44779 -1.37081 38136 ft 490 kts 76°
2026-04-25 11:11 47.46475 -1.27329 38132 ft 490 kts 76°
2026-04-25 11:12 47.48147 -1.17660 38133 ft 489 kts 76°
2026-04-25 11:12 47.49823 -1.07915 38129 ft 489 kts 76°
2026-04-25 11:13 47.51493 -0.98148 38136 ft 489 kts 76°
2026-04-25 11:13 47.53086 -0.88424 38131 ft 490 kts 80°
2026-04-25 11:14 47.53372 -0.78400 38141 ft 488 kts 94°
2026-04-25 11:14 47.52909 -0.68373 38145 ft 488 kts 95°
2026-04-25 11:15 47.52375 -0.58380 38141 ft 488 kts 95°
2026-04-25 11:15 47.52112 -0.53381 37589 ft 486 kts 95°
2026-04-25 11:15 47.51852 -0.48392 36683 ft 490 kts 94°
2026-04-25 11:15 47.51591 -0.43335 35895 ft 493 kts 94°
2026-04-25 11:16 47.51069 -0.33281 34665 ft 491 kts 94°
2026-04-25 11:16 47.50804 -0.28223 34176 ft 487 kts 94°
2026-04-25 11:16 47.50544 -0.23297 33632 ft 484 kts 94°
2026-04-25 11:17 47.50280 -0.18353 33120 ft 480 kts 94°
2026-04-25 11:17 47.50017 -0.13463 32636 ft 476 kts 94°
2026-04-25 11:17 47.49753 -0.08611 32133 ft 472 kts 94°
2026-04-25 11:17 47.49489 -0.03787 31652 ft 468 kts 94°
2026-04-25 11:18 47.49227 0.00986 31220 ft 465 kts 96°
2026-04-25 11:18 47.48972 0.05727 30691 ft 463 kts 96°
2026-04-25 11:18 47.48708 0.10465 30214 ft 460 kts 96°
2026-04-25 11:18 47.48532 0.13574 29855 ft 458 kts 96°
2026-04-25 11:19 47.48264 0.18263 29369 ft 454 kts 96°
2026-04-25 11:19 47.47912 0.24376 28753 ft 448 kts 96°
2026-04-25 11:19 47.47664 0.28960 28295 ft 444 kts 94°
2026-04-25 11:19 47.47871 0.33457 27856 ft 441 kts 79°
2026-04-25 11:20 47.48450 0.36407 27554 ft 438 kts 68°
2026-04-25 11:20 47.49927 0.40224 27108 ft 433 kts 52°
2026-04-25 11:20 47.52479 0.44772 26499 ft 429 kts 49°
2026-04-25 11:20 47.53772 0.46990 26210 ft 427 kts 49°
2026-04-25 11:21 47.55696 0.50296 25769 ft 424 kts 49°
2026-04-25 11:21 47.57622 0.53620 25295 ft 422 kts 49°
2026-04-25 11:21 47.60131 0.57966 24714 ft 419 kts 49°
2026-04-25 11:21 47.62018 0.61243 24265 ft 417 kts 49°
2026-04-25 11:22 47.63268 0.63416 23961 ft 416 kts 49°
2026-04-25 11:22 47.65134 0.66665 23475 ft 414 kts 49°
2026-04-25 11:22 47.66996 0.69911 23002 ft 411 kts 49°
2026-04-25 11:22 47.68844 0.73137 22546 ft 408 kts 49°
2026-04-25 11:23 47.70667 0.76323 22106 ft 405 kts 49°
2026-04-25 11:23 47.72504 0.79538 21646 ft 403 kts 49°
2026-04-25 11:23 47.74308 0.82699 21207 ft 400 kts 49°
2026-04-25 11:23 47.76098 0.85838 20766 ft 398 kts 49°
2026-04-25 11:24 47.77861 0.88935 20314 ft 395 kts 49°
2026-04-25 11:24 47.79631 0.92048 19887 ft 393 kts 49°
2026-04-25 11:24 47.81390 0.95143 19453 ft 391 kts 49°
2026-04-25 11:24 47.83137 0.98222 19013 ft 389 kts 49°
2026-04-25 11:25 47.84879 1.01296 18574 ft 387 kts 49°
2026-04-25 11:25 47.86611 1.04355 18103 ft 386 kts 49°
2026-04-25 11:25 47.88336 1.07405 17639 ft 382 kts 49°
2026-04-25 11:25 47.90041 1.10424 17206 ft 379 kts 49°
2026-04-25 11:26 47.91708 1.13378 16801 ft 376 kts 49°
2026-04-25 11:26 47.93379 1.16344 16378 ft 372 kts 49°
2026-04-25 11:26 47.95036 1.19286 15954 ft 369 kts 49°
2026-04-25 11:26 47.96681 1.22211 15513 ft 367 kts 49°
2026-04-25 11:27 47.98315 1.25118 15102 ft 364 kts 50°
2026-04-25 11:27 47.99932 1.28001 14690 ft 361 kts 51°
2026-04-25 11:27 48.01512 1.30908 14270 ft 359 kts 52°
2026-04-25 11:27 48.02539 1.32827 14002 ft 357 kts 52°
2026-04-25 11:28 48.04628 1.36670 13394 ft 353 kts 51°
2026-04-25 11:28 48.06315 1.39284 13163 ft 349 kts 39°
2026-04-25 11:28 48.08292 1.41386 13138 ft 350 kts 34°
2026-04-25 11:28 48.10323 1.43417 13135 ft 350 kts 34°
2026-04-25 11:29 48.12285 1.45399 13133 ft 337 kts 34°
2026-04-25 11:29 48.14185 1.47313 13134 ft 321 kts 34°
2026-04-25 11:29 48.15996 1.49131 13137 ft 309 kts 34°
2026-04-25 11:29 48.17773 1.50925 13142 ft 308 kts 34°
2026-04-25 11:30 48.19552 1.52722 13143 ft 309 kts 34°
2026-04-25 11:30 48.21333 1.54525 13147 ft 310 kts 34°
2026-04-25 11:30 48.23113 1.56330 13148 ft 310 kts 34°
2026-04-25 11:30 48.24898 1.58151 13149 ft 309 kts 35°
2026-04-25 11:31 48.26660 1.60002 13146 ft 309 kts 36°
2026-04-25 11:31 48.28415 1.61855 13143 ft 309 kts 36°
2026-04-25 11:31 48.30173 1.63717 13147 ft 309 kts 36°
2026-04-25 11:31 48.31931 1.65582 13147 ft 309 kts 36°
2026-04-25 11:32 48.33684 1.67443 13146 ft 308 kts 36°
2026-04-25 11:32 48.35433 1.69301 13151 ft 308 kts 36°
2026-04-25 11:32 48.37176 1.71157 13149 ft 308 kts 36°
2026-04-25 11:32 48.38911 1.73005 13148 ft 308 kts 36°
2026-04-25 11:33 48.40677 1.74886 13090 ft 308 kts 36°
2026-04-25 11:33 48.42408 1.76733 12723 ft 310 kts 36°
2026-04-25 11:33 48.44205 1.78655 12054 ft 318 kts 36°
2026-04-25 11:33 48.46038 1.80621 11331 ft 330 kts 36°
2026-04-25 11:34 48.47910 1.82632 10625 ft 338 kts 36°
2026-04-25 11:34 48.49831 1.84702 9904 ft 344 kts 36°
2026-04-25 11:34 48.51559 1.86567 9196 ft 339 kts 36°
2026-04-25 11:34 48.53432 1.88585 8469 ft 324 kts 36°
2026-04-25 11:35 48.55231 1.90518 7752 ft 311 kts 36°
2026-04-25 11:35 48.56971 1.92375 7033 ft 301 kts 36°
2026-04-25 11:35 48.58521 1.94396 6342 ft 293 kts 51°
2026-04-25 11:35 48.59639 1.96909 5607 ft 286 kts 63°
2026-04-25 11:36 48.60537 1.99552 4894 ft 280 kts 64°
2026-04-25 11:36 48.61416 2.02110 4337 ft 268 kts 64°
2026-04-25 11:36 48.62243 2.04544 4013 ft 250 kts 64°
2026-04-25 11:36 48.63088 2.06700 3873 ft 228 kts 59°
2026-04-25 11:37 48.63842 2.08635 3670 ft 203 kts 64°
2026-04-25 11:37 48.64456 2.10447 3452 ft 183 kts 64°
2026-04-25 11:37 48.64647 2.10993 3381 ft 178 kts 63°
2026-04-25 11:38 48.64679 2.11081 3361 ft 178 kts 63°
2026-04-25 11:38 48.64764 2.11319 3325 ft 176 kts 63°
2026-04-25 11:38 48.65067 2.12161 3197 ft 169 kts 63°
2026-04-25 11:38 48.65539 2.13474 3001 ft 157 kts 63°
2026-04-25 11:39 48.66040 2.14876 2801 ft 146 kts 63°
2026-04-25 11:39 48.66510 2.16202 2628 ft 141 kts 63°
2026-04-25 11:39 48.66939 2.17538 2441 ft 142 kts 63°
2026-04-25 11:39 48.67419 2.18846 2217 ft 142 kts 58°
2026-04-25 11:40 48.67912 2.20140 1964 ft 142 kts 60°
2026-04-25 11:40 48.68354 2.21462 1692 ft 140 kts 64°
2026-04-25 11:40 48.68778 2.22747 1450 ft 136 kts 61°
2026-04-25 11:40 48.69260 2.23969 1356 ft 137 kts 57°
2026-04-25 11:41 48.69736 2.25231 1275 ft 138 kts 62°
2026-04-25 11:41 48.70189 2.26524 1155 ft 140 kts 61°
2026-04-25 11:41 48.70634 2.27836 956 ft 139 kts 63°
2026-04-25 11:41 48.71079 2.29121 768 ft 138 kts 59°
2026-04-25 11:42 48.71547 2.30354 590 ft 133 kts 63°
2026-04-25 11:42 48.71959 2.31581 397 ft 130 kts 62°
2026-04-25 11:42 48.72363 2.32724 305 ft 125 kts 62°
2026-04-25 11:42 48.72718 2.33730 305 ft 73 kts 62°
2026-04-25 11:43 48.72872 2.34164 303 ft 42 kts 62°
2026-04-25 11:43 48.72992 2.34553 301 ft 36 kts 79°
2026-04-25 11:43 48.73000 2.34641 299 ft 1 kts 82°
2026-04-25 11:43 48.73003 2.34677 299 ft 5 kts 82°
2026-04-25 11:44 48.73010 2.34747 302 ft 9 kts 82°
2026-04-25 11:44 48.73020 2.34866 302 ft 13 kts 82°
2026-04-25 11:44 48.73035 2.35023 300 ft 17 kts 82°
2026-04-25 11:44 48.73019 2.35204 303 ft 18 kts 109°
2026-04-25 11:45 48.73029 2.35387 300 ft 19 kts 60°
2026-04-25 11:45 48.73054 2.35448 302 ft 0 kts 56°
2026-04-25 11:47 48.73069 2.35481 303 ft 6 kts 56°
2026-04-25 11:47 48.73091 2.35562 303 ft 10 kts 91°
2026-04-25 11:47 48.73053 2.35605 303 ft 6 kts 198°
2026-04-25 11:48 48.73004 2.35553 303 ft 12 kts 215°
2026-04-25 11:48 48.72922 2.35527 301 ft 14 kts 173°
2026-04-25 11:48 48.72813 2.35573 301 ft 18 kts 161°
2026-04-25 11:48 48.72679 2.35637 301 ft 21 kts 164°
2026-04-25 11:49 48.72523 2.35701 300 ft 25 kts 164°
2026-04-25 11:49 48.72468 2.35839 296 ft 10 kts 92°
2026-04-25 11:49 48.72468 2.35854 296 ft 0 kts 92°
2026-04-25 11:49 48.72467 2.35881 296 ft 5 kts 90°
2026-04-25 11:50 48.72468 2.35961 296 ft 10 kts 87°
2026-04-25 11:50 48.72481 2.36082 298 ft 13 kts 75°
2026-04-25 11:50 48.72510 2.36225 301 ft 16 kts 72°
2026-04-25 11:50 48.72544 2.36397 297 ft 18 kts 76°
2026-04-25 11:51 48.72577 2.36594 301 ft 20 kts 76°
2026-04-25 11:51 48.72622 2.36802 302 ft 21 kts 69°
2026-04-25 11:51 48.72666 2.37022 303 ft 22 kts 77°
2026-04-25 11:51 48.72696 2.37199 303 ft 16 kts 75°
2026-04-25 11:52 48.72726 2.37370 304 ft 17 kts 75°
2026-04-25 11:52 48.72768 2.37549 303 ft 19 kts 73°
2026-04-25 11:52 48.72803 2.37729 304 ft 16 kts 60°
2026-04-25 11:52 48.72897 2.37806 305 ft 13 kts
2026-04-25 11:53 48.72962 2.37744 305 ft 12 kts 303°
2026-04-25 11:53 48.72990 2.37660 305 ft 5 kts 292°
2026-04-25 11:53 48.72994 2.37643 305 ft 2 kts 289°
2026-04-25 11:53 48.72995 2.37639 305 ft 0 kts 289°
2026-04-25 11:56 48.69158 2.23721 1382 ft 138 kts 57°